Terug naar catalogus

ONEWEB-0560

ActiefCommunicatiePO
NORAD 55145·PAYLOAD·🇬🇧 United Kingdom

Gelanceerd Jan 10, 2023 vanaf Cape Canaveral Space Force Station

Loading…

Volgende Passages (komende 24 uur)

TLE

VersSource: CelesTrak SupGP

Epoch: Sep 14, 2026, 20:37 UTC

1 55145C 23004F   26257.85952963 -.00001651  00000+0 -41914-2 0  2570
2 55145  87.9164 317.6389 0001854  90.8802  18.8730 13.18689653    17

Volg ONEWEB-0560 in realtime met AllMySat

Download on the App Store